RYR1 LEMG-LEZL

Flight info

Callsign RYR1
Flight time 0h 23m
Altitude 15000
Route SVL
Aircraft B738/M-SDE2E3FGHIRWXY/LB1

Departure

Time 2026-04-15 13:31
Airport Málaga-Costa del Sol Airport (LEMG)

Arrival

Time 2026-04-15 13:54
Airport Seville Airport (LEZL)
Time Latitude Longitude Altitude Speed Heading
2026-04-15 13:11 36.68034 -4.49277 38 ft 0 kts 207°
2026-04-15 13:24 36.68027 -4.49274 39 ft 2 kts 151°
2026-04-15 13:24 36.68033 -4.49247 41 ft 4 kts 37°
2026-04-15 13:24 36.68077 -4.49234 41 ft 9 kts 13°
2026-04-15 13:24 36.68123 -4.49273 41 ft 9 kts 298°
2026-04-15 13:25 36.68150 -4.49339 41 ft 9 kts 297°
2026-04-15 13:25 36.68180 -4.49403 40 ft 2 kts 316°
2026-04-15 13:25 36.68181 -4.49403 40 ft 1 kts 329°
2026-04-15 13:25 36.68217 -4.49387 38 ft 11 kts 36°
2026-04-15 13:26 36.68298 -4.49337 39 ft 14 kts 341°
2026-04-15 13:26 36.68355 -4.49438 39 ft 16 kts 298°
2026-04-15 13:26 36.68408 -4.49564 39 ft 18 kts 297°
2026-04-15 13:26 36.68472 -4.49719 41 ft 20 kts 297°
2026-04-15 13:27 36.68535 -4.49871 40 ft 20 kts 297°
2026-04-15 13:27 36.68599 -4.50018 43 ft 19 kts 297°
2026-04-15 13:27 36.68659 -4.50162 44 ft 18 kts 297°
2026-04-15 13:27 36.68691 -4.50306 45 ft 18 kts 245°
2026-04-15 13:28 36.68604 -4.50411 46 ft 17 kts 221°
2026-04-15 13:28 36.68516 -4.50509 45 ft 18 kts 221°
2026-04-15 13:28 36.68414 -4.50621 41 ft 21 kts 222°
2026-04-15 13:28 36.68317 -4.50742 45 ft 10 kts 253°
2026-04-15 13:29 36.68318 -4.50762 46 ft 9 kts 277°
2026-04-15 13:29 36.68373 -4.50852 48 ft 15 kts 311°
2026-04-15 13:29 36.68443 -4.50950 46 ft 15 kts 313°
2026-04-15 13:29 36.68501 -4.51051 53 ft 14 kts 287°
2026-04-15 13:30 36.68444 -4.51130 54 ft 14 kts 193°
2026-04-15 13:30 36.68356 -4.51122 53 ft 13 kts 143°
2026-04-15 13:30 36.68345 -4.51107 58 ft 0 kts 132°
2026-04-15 13:30 36.68337 -4.51096 59 ft 8 kts 132°
2026-04-15 13:31 36.68223 -4.50935 52 ft 58 kts 131°
2026-04-15 13:31 36.67780 -4.50313 50 ft 131 kts 131°
2026-04-15 13:31 36.67089 -4.49333 468 ft 155 kts 131°
2026-04-15 13:31 36.66358 -4.48303 1247 ft 166 kts 133°
2026-04-15 13:32 36.65553 -4.47173 1944 ft 182 kts 131°
2026-04-15 13:32 36.64686 -4.45947 2721 ft 194 kts 130°
2026-04-15 13:32 36.63791 -4.44679 3480 ft 200 kts 132°
2026-04-15 13:32 36.62648 -4.43703 4243 ft 203 kts 162°
2026-04-15 13:33 36.61258 -4.43373 5021 ft 204 kts 178°
2026-04-15 13:33 36.59865 -4.43709 5747 ft 206 kts 196°
2026-04-15 13:33 36.58459 -4.44228 6294 ft 221 kts 195°
2026-04-15 13:33 36.56895 -4.44793 6588 ft 244 kts 195°
2026-04-15 13:34 36.55241 -4.45494 7033 ft 265 kts 209°
2026-04-15 13:34 36.53936 -4.47197 7431 ft 283 kts 247°
2026-04-15 13:34 36.53636 -4.49591 8229 ft 283 kts 281°
2026-04-15 13:34 36.54315 -4.51862 9170 ft 280 kts 301°
2026-04-15 13:35 36.55350 -4.53924 9788 ft 280 kts 307°
2026-04-15 13:35 36.56486 -4.55921 10471 ft 288 kts 309°
2026-04-15 13:35 36.57754 -4.57945 10932 ft 305 kts 310°
2026-04-15 13:35 36.59099 -4.60069 11482 ft 318 kts 310°
2026-04-15 13:36 36.60449 -4.62268 12264 ft 321 kts 309°
2026-04-15 13:36 36.61778 -4.64517 13094 ft 323 kts 308°
2026-04-15 13:36 36.63086 -4.66793 14069 ft 321 kts 308°
2026-04-15 13:36 36.64349 -4.69035 14802 ft 321 kts 307°
2026-04-15 13:37 36.65614 -4.71312 15111 ft 318 kts 307°
2026-04-15 13:37 36.66863 -4.73583 15185 ft 319 kts 307°
2026-04-15 13:37 36.68116 -4.75872 15198 ft 319 kts 306°
2026-04-15 13:37 36.69364 -4.78161 15207 ft 319 kts 306°
2026-04-15 13:38 36.70612 -4.80455 15200 ft 320 kts 306°
2026-04-15 13:38 36.71856 -4.82747 15203 ft 320 kts 306°
2026-04-15 13:38 36.73103 -4.85047 15200 ft 320 kts 306°
2026-04-15 13:38 36.74348 -4.87346 15198 ft 320 kts 306°
2026-04-15 13:39 36.75590 -4.89643 15203 ft 320 kts 306°
2026-04-15 13:39 36.76831 -4.91940 15202 ft 319 kts 306°
2026-04-15 13:39 36.78072 -4.94237 15200 ft 319 kts 306°
2026-04-15 13:39 36.79314 -4.96537 15198 ft 320 kts 306°
2026-04-15 13:40 36.80557 -4.98843 15194 ft 319 kts 306°
2026-04-15 13:40 36.81785 -5.01122 15204 ft 313 kts 306°
2026-04-15 13:40 36.82985 -5.03352 15173 ft 305 kts 306°
2026-04-15 13:40 36.84166 -5.05545 14971 ft 301 kts 306°
2026-04-15 13:41 36.85324 -5.07699 14731 ft 298 kts 306°
2026-04-15 13:41 36.86476 -5.09842 14455 ft 296 kts 306°
2026-04-15 13:41 36.87621 -5.11974 14160 ft 295 kts 306°
2026-04-15 13:41 36.88763 -5.14102 13867 ft 295 kts 306°
2026-04-15 13:42 36.89903 -5.16226 13515 ft 294 kts 306°
2026-04-15 13:42 36.91040 -5.18343 13204 ft 293 kts 306°
2026-04-15 13:42 36.92169 -5.20451 12896 ft 292 kts 306°
2026-04-15 13:42 36.93296 -5.22555 12587 ft 291 kts 306°
2026-04-15 13:43 36.94420 -5.24653 12284 ft 290 kts 306°
2026-04-15 13:43 36.95541 -5.26749 11970 ft 290 kts 306°
2026-04-15 13:43 36.96656 -5.28835 11673 ft 289 kts 306°
2026-04-15 13:43 36.97770 -5.30925 11376 ft 288 kts 305°
2026-04-15 13:44 36.98865 -5.32983 11077 ft 288 kts 305°
2026-04-15 13:44 37.00021 -5.35060 10826 ft 284 kts 314°
2026-04-15 13:44 37.01529 -5.36508 10701 ft 273 kts 330°
2026-04-15 13:44 37.03146 -5.37709 10335 ft 269 kts 330°
2026-04-15 13:45 37.04765 -5.38898 9845 ft 271 kts 330°
2026-04-15 13:45 37.06392 -5.40106 9358 ft 271 kts 330°
2026-04-15 13:45 37.08012 -5.41321 8947 ft 270 kts 330°
2026-04-15 13:47 37.18999 -5.49758 6533 ft 261 kts 329°
2026-04-15 13:47 37.20552 -5.50963 6151 ft 265 kts 328°
2026-04-15 13:47 37.22140 -5.52195 5757 ft 270 kts 329°
2026-04-15 13:48 37.23742 -5.53438 5449 ft 271 kts 329°
2026-04-15 13:48 37.25321 -5.54671 5148 ft 271 kts 328°
2026-04-15 13:48 37.26934 -5.55946 4846 ft 271 kts 329°
2026-04-15 13:48 37.28541 -5.57185 4553 ft 270 kts 329°
2026-04-15 13:49 37.30119 -5.58403 4259 ft 269 kts 329°
2026-04-15 13:49 37.31708 -5.59634 3995 ft 268 kts 329°
2026-04-15 13:49 37.33283 -5.60873 3713 ft 267 kts 327°
2026-04-15 13:49 37.34830 -5.62119 3582 ft 259 kts 329°
2026-04-15 13:50 37.36357 -5.63281 3448 ft 253 kts 329°
2026-04-15 13:50 37.37837 -5.64421 3354 ft 247 kts 328°
2026-04-15 13:50 37.39283 -5.65543 3230 ft 240 kts 328°
2026-04-15 13:50 37.40679 -5.66634 3134 ft 234 kts 327°
2026-04-15 13:51 37.41758 -5.68096 3029 ft 226 kts 292°
2026-04-15 13:51 37.41935 -5.70024 2828 ft 222 kts 266°
2026-04-15 13:51 37.41867 -5.71948 2524 ft 218 kts 269°
2026-04-15 13:51 37.41862 -5.73825 2246 ft 212 kts 269°
2026-04-15 13:52 37.41856 -5.75648 1965 ft 201 kts 269°
2026-04-15 13:52 37.41847 -5.77329 1698 ft 189 kts 269°
2026-04-15 13:52 37.41839 -5.78931 1452 ft 177 kts 269°
2026-04-15 13:52 37.41832 -5.80436 1226 ft 167 kts 269°
2026-04-15 13:53 37.41826 -5.81842 1072 ft 157 kts 269°
2026-04-15 13:53 37.41817 -5.83228 834 ft 158 kts 270°
2026-04-15 13:53 37.41813 -5.84594 633 ft 155 kts 270°
2026-04-15 13:53 37.41803 -5.85946 399 ft 153 kts 269°
2026-04-15 13:54 37.41794 -5.87258 180 ft 144 kts 271°
2026-04-15 13:54 37.41798 -5.88430 106 ft 113 kts 269°
2026-04-15 13:54 37.41796 -5.89145 100 ft 50 kts 270°
2026-04-15 13:54 37.41796 -5.89541 98 ft 44 kts 270°
2026-04-15 13:55 37.41827 -5.89783 96 ft 18 kts 318°
2026-04-15 13:55 37.41939 -5.89851 96 ft 18 kts 338°